[[{"header":{"parameterUnit":"m.s-1","parameterCategory":1,"la1":30.2991,"la2":30.254,"lo1":-89.0895,"lo2":-89.0444,"dy":0.0017,"dx":0.0017,"nx":28,"ny":28,"refTime":"2025-08-22T03:00:00:Z","depth":0,"parameterNumber":2,"parameterNumberName":"U-component_of_WINDS"},"data":[0,0,0,0,0,0,0,0,0,0,0,0,0,0,0,0,0,0,0,0,0,0,0,0,0,0,0,0,0,0,0,0,0,0,0,0,0,0,0,0,0,0,0,0,0,0,0,0,0,0,0,0,0,0,0,0,0,0,0.725,0.725,0,0.7287,0.7287,0.7287,0.7301,0.7301,0.7301,0.7301,0.7342,0.7343,0.7344,0,0,0,0,0,0,0,0,0,0,0,0,0,0.7194,0.7195,0.725,0.725,0.7251,0.7287,0.7287,0.7288,0.7301,0.7301,0.7301,0.7301,0.7342,0.7343,0.7344,0,0,0,0,0,0,0,0,0,0,0,0,0,0.7224,0.7196,0.725,0.7262,0.7263,0.7286,0.7287,0.7288,0.7301,0.7301,0.7301,0.7301,0.7341,0.7343,0.7345,0.736,0,0,0.735,0.7351,0,0,0,0,0,0,0,0,0.7222,0.7226,0.726,0.7261,0.7263,0.7289,0.7283,0.7312,0.7301,0.7287,0.7301,0.7301,0.7325,0.7328,0.7335,0.7362,0.7363,0.735,0.7351,0.7352,0.7353,0,0,0,0,0,0,0,0.722,0.7224,0.7265,0.726,0.7262,0.7266,0.727,0.7288,0.7307,0.7288,0.7289,0.7293,0.7326,0.7334,0.7336,0.7364,0.735,0.7352,0.7353,0.7354,0.7404,0.7404,0,0,0,0,0,0,0.7215,0.7222,0.7263,0.7266,0.7241,0.7268,0.7272,0.7281,0.7306,0.731,0.7293,0.7294,0.7331,0.7334,0.7338,0.7357,0.7352,0.7354,0.7355,0.7403,0.7404,0.7404,0,0,0,0,0,0,0.7214,0.7219,0.7262,0.7244,0.725,0.7269,0.7279,0.7282,0.729,0.731,0.7314,0.7298,0.7331,0.7335,0.7354,0.7358,0.7355,0.7356,0.7403,0.7404,0.7404,0.7395,0,0,0,0,0,0,0.7213,0.7218,0.7224,0.7244,0.7251,0.7276,0.7279,0.7283,0.7292,0.7293,0.7315,0.7319,0.7331,0.7351,0.7356,0.7361,0.7358,0.7403,0.7403,0.7404,0.7395,0.7395,0.7395,0,0,0,0,0,0.7211,0.722,0.7224,0.7229,0.7258,0.7276,0.728,0.7293,0.7293,0.7298,0.7312,0.7318,0.7357,0.7353,0.7358,0.7364,0.7403,0.7403,0.7404,0.7395,0.7395,0.7395,0,0,0,0,0,0,0.7201,0.7223,0.7227,0.7244,0.7258,0.7279,0.7286,0.7292,0.7308,0.7308,0.7324,0.7329,0.7346,0.7357,0.7352,0.7379,0.738,0.7382,0.7372,0.7372,0.7372,0.7369,0.7359,0,0,0,0,0,0.7201,0.7213,0.7232,0.7245,0.7252,0.7268,0.7277,0.7285,0.73,0.7307,0.7321,0.7337,0.7353,0.7363,0.7378,0.7396,0.7401,0.7403,0.7403,0.7403,0.7404,0.7414,0.7415,0.7406,0.7406,0.7406,0,0,0.7201,0.7215,0.7222,0.7244,0.7256,0.7269,0.7273,0.7287,0.7297,0.7309,0.7327,0.7338,0.7357,0.7375,0.7383,0.7385,0.7407,0.7403,0.7403,0.7405,0.7414,0.7415,0.7416,0.7406,0.7406,0.7406,0,0,0.7208,0.7219,0.7231,0.7242,0.7259,0.727,0.7272,0.7292,0.7299,0.7317,0.7326,0.7339,0.7366,0.7379,0.7389,0.7399,0.7406,0.7404,0.7404,0.7413,0.7414,0.7415,0.7418,0.7419,0.7405,0.7405,0.7405,0,0.7206,0.7225,0.7236,0.7249,0.7259,0.7269,0.7281,0.7292,0.7314,0.7321,0.7322,0.7355,0.7368,0.7389,0.7391,0.7399,0.7403,0.7401,0.7413,0.7414,0.7414,0.7418,0.7419,0.7405,0.7405,0.7405,0.7405,0,0.7222,0.7235,0.7243,0.7262,0.7272,0.7285,0.7299,0.7308,0.7315,0.7326,0.7344,0.736,0.7379,0.7384,0.7392,0.7406,0.7406,0.741,0.7411,0.7415,0.7418,0.742,0.7404,0.7404,0.7404,0.7404,0,0,0.7224,0.7249,0.7251,0.726,0.728,0.7291,0.7304,0.7321,0.7329,0.7343,0.7355,0.7377,0.738,0.7391,0.74,0.7408,0.7415,0.7411,0.7411,0.7411,0.7432,0.7429,0.7431,0.742,0.742,0.742,0.743,0,0.7233,0.7256,0.7267,0.7285,0.7298,0.7307,0.7319,0.7332,0.7342,0.7355,0.7367,0.7382,0.7384,0.7391,0.7399,0.7412,0.742,0.7412,0.7431,0.7432,0.7426,0.7432,0.743,0.7439,0.7432,0.7432,0.7432,0,0.7247,0.726,0.728,0.7297,0.7303,0.7313,0.7329,0.7341,0.7357,0.7363,0.7375,0.7384,0.7398,0.7398,0.7419,0.7414,0.7422,0.743,0.743,0.7433,0.7432,0.7435,0.7442,0.7443,0.7435,0.7434,0.7434,0,0.7247,0.727,0.7284,0.7292,0.7312,0.7319,0.7328,0.7343,0.7353,0.7367,0.7373,0.739,0.7399,0.7412,0.7424,0.7423,0.7444,0.7445,0.7451,0.745,0.7455,0.7455,0.7463,0.746,0.746,0.746,0.746,0,0.7256,0.7268,0.7284,0.7293,0.7307,0.7318,0.7332,0.7342,0.7355,0.7366,0.7376,0.7387,0.7403,0.7416,0.7426,0.7442,0.7446,0.7452,0.7455,0.7451,0.7451,0.7458,0.7457,0.7461,0.746,0.746,0.746,0,0.7259,0.727,0.7286,0.7304,0.7308,0.7318,0.7333,0.7342,0.7352,0.7367,0.7371,0.7387,0.7403,0.7416,0.7438,0.7445,0.7461,0.7464,0.7455,0.7456,0.7461,0.7461,0.7475,0.7477,0.7472,0.7472,0.7472,0,0.7264,0.7273,0.7291,0.7298,0.7307,0.732,0.7329,0.7341,0.735,0.7368,0.7375,0.7391,0.7405,0.743,0.7444,0.746,0.7464,0.7468,0.7466,0.7463,0.7464,0.7463,0.7464,0.7468,0.7468,0.7468,0.7468,0,0.7272,0.7277,0.7289,0.7303,0.7313,0.7325,0.7338,0.7344,0.7359,0.7369,0.7384,0.7394,0.7415,0.7431,0.7449,0.7459,0.7466,0.7468,0.747,0.7467,0.7461,0.7464,0.7455,0.7468,0.7468,0.7468,0.7468,0.7468,0.7276,0.7284,0.7298,0.7311,0.7321,0.7332,0.7342,0.7352,0.7365,0.7382,0.7389,0.7404,0.742,0.7443,0.7454,0.7467,0.7468,0.7471,0.7472,0.7472,0.7472,0.7458,0.747,0.747,0.747,0.747,0.747,0,0.7284,0.7293,0.7305,0.7321,0.7332,0.7336,0.735,0.7359,0.7372,0.7385,0.7398,0.7415,0.7431,0.7445,0.7462,0.7469,0.7473,0.7473,0.7473,0.7475,0.747,0.7466,0.747,0.747,0.747,0.747,0.747,0.747,0.729,0.7304,0.731,0.7329,0.7338,0.7353,0.736,0.7371,0.7381,0.74,0.7412,0.7421,0.7435,0.7452,0.7467,0.7471,0.7476,0.7476,0.7481,0.7476,0.7475,0.7475,0.7472,0.7477,0.7477,0.7485,0.7485,0.7485]},{"header":{"parameterUnit":"m.s-1","parameterCategory":1,"la1":30.2991,"la2":30.254,"lo1":-89.0895,"lo2":-89.0444,"dy":0.0017,"dx":0.0017,"nx":28,"ny":28,"refTime":"2025-08-22T03:00:00:Z","depth":0,"parameterNumber":3,"parameterNumberName":"V-component_of_WINDS"},"data":[0,0,0,0,0,0,0,0,0,0,0,0,0,0,0,0,0,0,0,0,0,0,0,0,0,0,0,0,0,0,0,0,0,0,0,0,0,0,0,0,0,0,0,0,0,0,0,0,0,0,0,0,0,0,0,0,0,0,3.2767,3.2766,0,3.2713,3.2712,3.2711,3.2704,3.2705,3.2705,3.2706,3.2645,3.2643,3.2641,0,0,0,0,0,0,0,0,0,0,0,0,0,3.2858,3.2856,3.2767,3.2766,3.2765,3.2713,3.2712,3.2711,3.2704,3.2705,3.2705,3.2706,3.2646,3.2643,3.2641,0,0,0,0,0,0,0,0,0,0,0,0,0,3.2812,3.2855,3.2767,3.2756,3.2754,3.2713,3.2712,3.2711,3.2704,3.2705,3.2706,3.2706,3.2647,3.2643,3.264,3.2605,0,0,3.2631,3.2629,0,0,0,0,0,0,0,0,3.2815,3.2809,3.2758,3.2756,3.2755,3.2716,3.2722,3.2675,3.2704,3.2723,3.2706,3.2707,3.2668,3.2663,3.2651,3.2602,3.26,3.263,3.2628,3.2627,3.2626,0,0,0,0,0,0,0,3.2818,3.2811,3.2745,3.2757,3.2755,3.2751,3.2746,3.2713,3.2691,3.2721,3.2721,3.2715,3.2667,3.2654,3.2649,3.2599,3.263,3.2628,3.2626,3.2624,3.2515,3.2514,0,0,0,0,0,0,3.2824,3.2814,3.2747,3.2744,3.2787,3.2749,3.2743,3.2728,3.2692,3.2687,3.2714,3.2714,3.2659,3.2653,3.2647,3.2601,3.2627,3.2624,3.2622,3.2516,3.2515,3.2514,0,0,0,0,0,0,3.2826,3.2818,3.2749,3.2778,3.2769,3.2747,3.273,3.2726,3.2713,3.2686,3.2682,3.2705,3.2659,3.2652,3.2615,3.2599,3.2623,3.262,3.2517,3.2516,3.2515,3.2511,0,0,0,0,0,0,3.2829,3.2819,3.2807,3.2778,3.2768,3.272,3.2729,3.2724,3.2708,3.2708,3.2677,3.2672,3.2659,3.262,3.2612,3.2595,3.2617,3.2519,3.2517,3.2515,3.2512,3.2509,3.2507,0,0,0,0,0,3.2832,3.2807,3.2806,3.2798,3.2753,3.2719,3.2713,3.27,3.2707,3.2693,3.2676,3.2673,3.2603,3.2616,3.2607,3.2589,3.252,3.2517,3.2515,3.2514,3.251,3.2507,0,0,0,0,0,0,3.2833,3.2803,3.2802,3.2768,3.2746,3.2718,3.2701,3.2697,3.2672,3.2673,3.2657,3.2649,3.2613,3.2598,3.2614,3.2552,3.2561,3.2557,3.2563,3.256,3.2557,3.2561,3.2615,0,0,0,0,0,3.283,3.2807,3.2782,3.2754,3.2743,3.2724,3.2709,3.2701,3.2677,3.2667,3.2647,3.2623,3.2595,3.2577,3.255,3.2511,3.2502,3.2493,3.2491,3.2489,3.2485,3.246,3.2455,3.2507,3.2507,3.2507,0,0,3.2821,3.2803,3.2789,3.2753,3.2736,3.271,3.2716,3.269,3.267,3.2663,3.2627,3.2612,3.2583,3.2544,3.2526,3.253,3.2469,3.2486,3.2484,3.2481,3.2457,3.2452,3.2448,3.2505,3.2505,3.2506,0,0,3.2794,3.2778,3.2752,3.2735,3.2708,3.2696,3.2689,3.2662,3.2651,3.2616,3.2609,3.2584,3.2538,3.2517,3.25,3.2463,3.2458,3.2454,3.244,3.2416,3.2412,3.2408,3.2392,3.2387,3.2451,3.2451,3.2451,0,3.2786,3.275,3.2739,3.2712,3.2696,3.269,3.2662,3.2645,3.261,3.2598,3.2603,3.2543,3.2523,3.2479,3.2469,3.2457,3.2447,3.2457,3.2414,3.241,3.2406,3.2391,3.2385,3.245,3.245,3.245,3.245,0,3.2741,3.2716,3.2698,3.2666,3.2647,3.262,3.2603,3.2585,3.2578,3.2564,3.2526,3.2503,3.247,3.2459,3.2452,3.2412,3.2415,3.2417,3.2426,3.2401,3.2386,3.238,3.245,3.245,3.245,3.245,0,0,3.2712,3.2674,3.2668,3.2652,3.2622,3.2601,3.2572,3.2542,3.2525,3.2502,3.2475,3.2435,3.2437,3.2417,3.2408,3.2387,3.2356,3.2391,3.239,3.2384,3.2308,3.2305,3.2298,3.2354,3.2352,3.2352,3.2309,0,3.2679,3.263,3.2619,3.2576,3.255,3.2544,3.2518,3.2496,3.2482,3.2456,3.244,3.2411,3.2416,3.2404,3.2384,3.2364,3.234,3.2367,3.2326,3.2325,3.2332,3.2291,3.2288,3.2249,3.2304,3.2303,3.2302,0,3.2634,3.261,3.2565,3.2537,3.2525,3.2503,3.2473,3.245,3.2423,3.2414,3.2392,3.2384,3.2351,3.2363,3.2316,3.2335,3.2317,3.2305,3.2303,3.2297,3.231,3.2281,3.2237,3.223,3.2293,3.2294,3.2295,0,3.2614,3.2571,3.2538,3.2525,3.2492,3.2476,3.2461,3.2435,3.2417,3.239,3.2377,3.2346,3.2328,3.2303,3.2286,3.2297,3.2239,3.225,3.2228,3.2228,3.2215,3.2215,3.2165,3.2207,3.2207,3.2207,3.2207,0,3.2577,3.2549,3.2528,3.2507,3.2475,3.2461,3.2428,3.2413,3.239,3.2364,3.2357,3.2332,3.2312,3.2284,3.227,3.2232,3.2224,3.2214,3.221,3.2213,3.2214,3.22,3.2201,3.2206,3.2206,3.2206,3.2207,0,3.2549,3.2535,3.2497,3.2469,3.2461,3.2438,3.2413,3.2391,3.2377,3.2344,3.2335,3.2311,3.2278,3.2259,3.2216,3.2207,3.2163,3.2162,3.2172,3.217,3.2148,3.215,3.2084,3.2074,3.2126,3.2125,3.2125,0,3.2526,3.2504,3.2474,3.2457,3.2442,3.2415,3.2396,3.2381,3.2362,3.2329,3.231,3.2277,3.2249,3.2195,3.2172,3.2139,3.2135,3.2114,3.213,3.2133,3.2131,3.2132,3.2128,3.2111,3.2111,3.211,3.211,0,3.2485,3.2478,3.2453,3.2424,3.2402,3.2379,3.2355,3.2341,3.2322,3.2299,3.2266,3.2244,3.2201,3.2166,3.2131,3.2113,3.2106,3.2106,3.2098,3.21,3.2106,3.21,3.2163,3.2107,3.2107,3.2107,3.2107,3.2108,3.2457,3.2436,3.2412,3.2382,3.2363,3.2341,3.2319,3.2302,3.2274,3.2239,3.2231,3.2195,3.2166,3.2118,3.2099,3.2068,3.2072,3.2062,3.2059,3.2056,3.2054,3.2113,3.2062,3.2062,3.2062,3.2062,3.2062,0,3.2413,3.2397,3.2371,3.2338,3.2314,3.2314,3.2287,3.2266,3.2235,3.221,3.2183,3.2143,3.2109,3.2084,3.2048,3.2028,3.2024,3.2019,3.2019,3.2015,3.2054,3.2063,3.2023,3.2023,3.2023,3.2023,3.2023,3.2023,3.2388,3.2352,3.2343,3.2297,3.228,3.2246,3.223,3.2208,3.2188,3.2144,3.2116,3.2101,3.2075,3.2037,3.2005,3.1998,3.1984,3.1979,3.1971,3.2008,3.2012,3.2016,3.2024,3.1977,3.1976,3.1934,3.1933,3.1933]}]]